Wind_Speed
6 7 9 9 10 11 10 9 9 11 11 12 12 11 8 6 6 6 6 5 4 3 3 4 3 3 3 1 3 7 9 14 21 25 22 19 25 18 16 20 22 22 15 10 9 6 3 1 3 3 3 1 2 2 2 3 4 4 3 3 4 5 6 9 10 9 11 12 14 15 12 12 12 7 4 1 2 8 8 9 10 11 13 14 15 14 13 11
6 7 9 10 11 11 9 9 10 10 10 11 12 12 10 7 5 5 4 3 1 1 2 2 3 5 6 4 3 2 3 9 22 25 21 22 20 15 17 21 21 21 15 10 10 9 6 6 5 4 3 1 3 2 1 2 5 3 3 4 3 7 7 8 10 10 11 12 13 14 12 10 11 10 4 5 2 4 4 8 9 11 13 13 14 12 12 11
7 8 9 11 12 10 9 10 9 9 9 9 10 11 10 8 7 6 5 6 8 10 12 11 11 8 6 8 7 4 5 6 20 21 22 24 18 15 18 19 20 21 16 10 10 8 6 6 5 5 3 3 3 3 3 4 5 2 3 3 5 7 6 9 10 11 11 11 13 13 12 10 8 9 6 8 9 3 4 7 4 8 11 11 12 12 13 13
8 9 10 11 11 10 9 10 9 9 9 9 10 10 9 8 8 10 11 11 10 8 9 9 14 16 4 7 7 3 7 3 13 16 23 23 16 16 17 18 19 19 16 11 9 7 5 5 3 4 2 3 3 3 4 6 4 3 3 4 7 8 6 10 11 11 11 10 11 12 11 10 7 7 8 10 10 5 9 11 6 8 11 11 11 12 14 15
8 10 10 11 10 10 10 9 9 9 9 10 10 9 8 8 10 12 11 7 7 8 8 7 9 16 14 5 3 3 6 2 8 18 25 21 16 17 16 17 17 17 16 11 9 7 6 4 1 2 2 4 5 2 6 7 4 2 5 7 8 8 6 9 11 10 10 9 10 12 11 10 6 6 12 13 9 8 10 10 10 12 11 11 12 13 14 15
9 10 10 10 9 9 9 8 8 9 10 11 12 13 14 13 12 12 11 12 12 7 7 7 4 9 16 16 9 3 0 2 9 21 23 18 16 17 14 15 16 16 16 12 9 9 9 6 2 3 3 5 7 6 6 6 4 2 6 8 7 7 7 8 10 9 9 10 10 11 9 9 7 7 13 15 12 11 11 13 15 14 13 14 14 14 14 15
9 10 10 9 8 9 8 8 8 9 11 12 14 17 18 16 13 11 11 17 19 10 4 3 1 1 6 12 14 14 10 6 13 21 20 17 15 15 13 14 15 15 15 15 14 10 10 10 7 5 4 5 6 7 6 5 6 5 6 8 6 6 7 7 7 9 10 8 8 10 11 8 8 7 12 15 12 11 13 16 16 16 16 15 15 14 15 15
8 9 9 9 8 8 7 8 8 9 10 10 11 11 11 10 10 11 11 15 21 18 11 7 3 1 2 1 4 12 11 9 17 21 18 15 14 14 12 13 13 13 15 17 15 10 8 10 9 5 4 6 4 5 5 3 8 9 6 5 4 4 5 7 6 11 12 6 7 13 14 7 11 10 13 13 10 11 12 14 15 15 15 14 14 14 15 15
8 8 8 8 7 7 7 8 8 8 8 7 7 5 5 7 8 10 11 13 17 20 18 15 9 4 2 3 2 8 9 12 16 19 17 14 13 13 13 13 12 12 14 16 16 15 10 8 9 7 5 7 4 5 5 5 6 6 5 3 4 3 2 8 10 15 14 5 9 16 16 7 12 10 12 11 9 10 12 14 13 13 13 13 12 14 15 15
8 7 8 7 6 7 7 7 7 6 6 6 5 4 4 6 7 8 10 12 13 15 17 20 19 12 6 2 3 9 8 12 15 17 15 14 13 13 16 15 11 12 14 15 17 16 12 9 8 4 2 5 6 5 6 6 3 3 3 2 5 4 2 9 12 16 12 5 14 18 15 6 8 4 7 8 8 9 11 13 11 11 12 11 11 13 14 15
8 7 7 6 6 6 6 6 6 6 7 6 5 4 3 4 6 6 7 9 11 13 11 13 17 18 18 15 11 9 9 11 15 17 13 12 13 16 19 17 13 12 12 14 15 13 12 11 8 3 1 2 4 6 7 4 1 4 2 4 6 3 3 11 11 14 11 7 17 20 13 7 10 7 7 7 7 9 10 11 11 11 10 10 11 11 12 14
7 7 6 5 5 5 5 6 6 7 7 6 5 3 3 3 4 4 6 6 7 15 16 11 10 8 13 19 12 7 9 10 14 16 12 9 11 17 19 16 15 12 11 14 13 12 10 10 11 10 4 4 2 6 5 0 2 5 1 3 7 1 1 11 10 12 12 9 17 17 9 8 11 8 9 7 7 9 10 11 10 9 9 9 9 9 11 12
7 7 5 5 5 5 5 6 7 7 7 7 6 4 4 4 3 2 4 6 6 10 14 15 14 6 6 11 9 8 9 9 14 15 14 11 6 9 14 15 15 12 12 14 11 11 10 10 13 13 8 5 4 3 2 1 4 7 2 3 7 3 3 10 8 13 13 11 17 15 6 6 9 8 9 7 8 9 8 9 7 7 7 7 7 7 8 10
7 6 5 5 5 4 5 6 7 7 6 7 7 6 7 7 7 5 3 5 5 4 5 7 9 10 10 8 5 11 13 10 16 18 18 17 7 5 10 12 14 13 11 11 8 10 9 9 11 10 8 7 5 1 3 2 5 8 3 3 4 5 6 8 9 15 13 10 17 14 7 3 8 7 7 7 8 7 7 7 6 6 5 5 6 5 6 8
7 7 6 5 5 6 7 7 6 5 5 5 5 5 6 7 9 10 8 6 5 4 6 5 3 5 8 7 3 8 15 15 19 20 18 18 12 8 9 7 10 12 10 8 8 9 8 9 11 9 9 6 3 2 2 2 5 8 5 3 6 6 8 8 11 16 12 12 17 12 7 2 7 6 6 7 7 7 6 6 6 5 5 4 4 4 4 5
8 7 5 6 8 10 10 8 7 6 5 4 4 2 1 3 6 8 10 10 10 8 7 6 5 4 5 5 1 5 14 18 18 18 16 15 12 12 9 3 4 6 8 8 6 4 4 7 7 8 10 8 7 5 2 1 5 7 7 7 9 9 9 8 10 13 12 13 15 9 7 2 6 5 7 8 7 7 6 6 5 4 4 3 3 2 3 4
7 6 6 9 14 16 17 16 17 17 16 14 13 10 6 4 1 2 3 4 8 9 7 7 5 3 6 5 3 6 12 15 16 18 17 13 11 13 10 3 2 1 4 6 6 3 5 6 3 4 9 10 10 8 2 4 8 7 7 7 8 10 10 9 11 12 11 12 12 9 7 3 8 6 7 8 7 7 6 5 5 3 2 2 1 2 4 6
8 7 10 16 20 22 22 22 21 20 19 18 18 19 20 18 14 12 9 2 1 2 4 8 6 3 6 8 6 9 11 12 15 20 20 13 9 12 10 4 2 3 5 2 8 8 6 5 4 5 9 9 10 10 7 7 8 8 9 7 8 10 9 10 13 12 10 11 11 9 8 4 9 7 7 8 7 7 7 6 4 3 1 1 2 4 6 8
10 12 16 19 20 18 16 14 11 8 7 7 7 7 9 14 20 23 22 13 5 3 2 7 7 3 4 8 9 12 9 7 13 21 23 16 9 9 8 4 4 3 1 2 8 10 5 4 6 8 9 10 11 11 8 6 7 8 9 7 10 10 8 11 14 12 11 11 9 9 12 3 8 7 6 7 6 7 7 6 4 2 1 2 4 7 9 10
13 15 15 14 13 10 8 5 2 4 5 4 4 5 2 2 7 11 16 16 11 8 7 6 6 7 5 6 11 14 6 4 12 21 24 19 11 8 7 5 2 7 5 2 6 7 5 7 9 8 8 8 9 9 9 8 6 7 7 8 10 9 10 15 14 12 11 11 8 10 13 4 8 6 5 6 5 6 6 5 4 2 1 3 7 11 13 12
14 13 11 10 8 6 4 2 7 8 8 7 5 4 1 1 2 3 4 10 10 8 10 7 7 9 4 4 11 13 5 3 12 21 26 21 9 4 8 7 3 7 6 1 1 2 6 10 8 7 6 5 5 8 12 10 6 5 6 9 9 7 12 15 12 12 12 10 8 11 12 4 9 5 6 5 4 5 3 3 2 1 3 6 10 14 15 13
12 9 8 7 5 3 3 4 5 3 1 0 1 2 3 3 8 9 4 7 7 5 6 5 7 9 4 3 9 12 5 5 11 20 27 22 10 4 6 7 7 8 7 2 2 1 8 9 7 6 5 5 2 6 15 13 6 3 6 8 8 9 12 10 9 13 12 9 7 12 12 3 9 6 6 5 3 3 2 2 1 3 5 8 12 14 15 14
8 6 5 4 3 1 1 2 2 5 8 7 6 6 7 10 13 9 2 5 5 2 4 6 8 9 6 5 10 12 8 9 10 16 24 19 10 6 6 6 8 7 9 9 5 5 6 6 6 4 6 7 4 7 15 13 5 3 6 8 8 12 13 9 10 16 16 8 5 11 10 3 9 7 7 4 3 4 3 1 0 3 7 11 13 14 14 15
6 5 4 3 3 3 4 5 5 8 11 10 10 10 11 11 10 5 1 2 4 2 3 4 5 8 7 4 9 8 8 9 8 12 19 16 7 4 4 5 5 6 7 8 10 10 7 4 5 5 5 9 8 8 12 10 6 3 5 9 10 14 15 12 13 17 14 2 3 9 7 3 7 7 6 5 4 4 3 2 3 4 9 11 13 15 14 15
5 4 3 3 3 3 3 4 5 9 9 8 10 11 10 8 4 2 1 1 3 3 2 1 1 6 5 4 8 5 2 6 8 10 14 13 8 4 1 1 3 6 3 2 6 9 7 4 4 5 6 11 9 8 9 9 7 2 6 12 14 16 16 15 15 14 9 3 4 9 9 4 3 8 6 4 5 4 2 4 6 8 11 12 13 15 15 16
3 3 2 2 2 2 1 1 4 8 6 4 8 9 7 3 1 1 2 2 2 2 1 1 1 6 6 8 10 2 2 3 5 10 13 10 4 2 1 1 1 4 1 1 3 4 5 3 2 5 7 10 10 6 8 8 7 4 9 14 15 15 14 14 14 9 6 7 6 7 9 10 4 6 6 4 5 3 3 5 8 10 12 13 14 14 16 17
2 2 2 1 1 1 2 2 6 6 2 3 8 8 4 1 1 1 2 3 2 1 3 3 2 5 6 10 12 1 1 5 3 10 15 11 5 4 1 3 3 3 0 1 1 2 4 4 4 6 7 9 9 6 7 8 6 6 13 17 16 15 14 13 12 7 6 7 6 8 11 11 7 3 4 3 4 4 3 6 9 12 14 15 14 16 18 19
2 2 2 2 2 3 2 3 7 4 0 6 9 6 3 2 1 1 3 2 1 1 2 3 1 4 4 7 12 6 1 7 3 9 14 10 7 2 1 5 3 4 3 2 2 3 3 4 5 6 7 8 8 7 7 7 6 6 13 17 15 15 14 11 8 6 7 7 4 11 13 10 7 1 5 6 5 3 6 8 10 13 15 15 16 19 20 19
1 2 2 2 2 2 3 5 6 3 3 8 8 5 3 2 2 2 2 2 1 1 1 2 1 3 4 2 9 9 4 5 3 7 11 7 8 4 2 4 1 2 6 6 5 3 1 4 3 4 5 7 9 9 5 4 6 9 14 15 13 12 10 8 5 5 8 6 6 13 15 10 8 4 1 5 5 6 7 7 10 13 16 17 20 22 21 19
1 2 2 2 2 3 4 4 3 4 6 8 6 3 3 2 2 3 2 2 1 1 1 3 0 4 6 1 4 7 6 6 4 7 5 2 6 5 2 0 2 1 4 8 7 4 3 3 1 1 3 6 11 9 4 4 8 12 13 14 11 6 5 4 2 3 6 4 7 15 15 11 9 7 5 2 1 4 5 8 11 14 19 21 21 21 20 19
2 2 2 2 4 4 3 2 4 7 8 8 6 3 2 2 2 3 2 0 1 1 1 3 1 3 5 3 3 5 4 4 6 7 5 3 5 8 5 1 3 2 2 4 5 5 4 2 1 1 1 6 11 7 5 8 9 11 10 11 8 2 3 3 0 1 5 6 10 16 14 11 10 7 4 4 4 2 5 9 13 18 22 21 20 19 18 17
5 4 2 1 5 5 3 4 8 9 8 8 5 2 2 2 2 1 1 0 1 1 1 1 2 2 2 2 4 5 3 3 6 7 6 5 7 9 8 6 5 3 2 4 2 3 4 2 2 3 2 5 10 7 0 5 5 10 10 10 9 6 5 5 5 5 4 5 12 16 12 10 9 5 3 4 2 3 7 10 14 18 21 20 20 19 17 15
8 7 5 2 4 5 6 8 9 9 9 7 4 2 2 3 2 1 2 0 1 2 1 0 2 3 3 1 4 5 2 1 5 5 3 4 5 6 7 8 8 5 2 5 6 3 1 3 1 2 2 5 8 7 5 3 6 10 10 10 9 8 7 7 7 7 6 7 13 14 9 8 9 5 3 1 1 4 7 10 14 16 18 20 20 18 16 15
11 8 6 7 7 8 10 10 9 9 8 4 3 2 2 2 0 1 1 1 2 1 1 0 1 2 1 2 3 4 1 1 4 5 3 3 4 4 5 8 11 7 3 3 3 4 3 1 2 2 1 6 7 6 4 6 5 7 8 7 6 5 4 6 7 7 9 11 14 10 5 8 11 5 4 2 1 4 8 9 12 16 17 18 17 16 15 14
11 10 9 10 10 9 8 8 8 8 5 3 3 3 2 1 2 1 1 2 2 2 2 1 2 3 1 3 1 1 1 1 1 3 5 4 4 4 4 6 11 8 4 3 2 3 5 1 3 3 3 6 5 3 3 7 3 4 5 5 6 5 3 6 7 8 11 12 10 6 4 8 8 3 7 4 3 5 8 10 15 17 17 16 15 15 14 13
6 9 10 11 9 6 6 6 7 5 2 3 3 3 1 1 1 1 1 1 1 1 2 2 2 2 1 2 1 1 0 0 1 1 3 4 4 4 3 3 7 7 5 3 2 2 5 1 5 5 3 6 4 3 2 5 3 4 4 5 7 6 4 6 7 8 10 9 7 6 7 10 7 3 6 2 8 9 11 14 18 18 18 17 15 14 13 13
2 6 9 11 9 4 4 6 6 3 3 3 2 1 1 2 2 2 2 1 0 1 2 3 1 2 0 1 1 3 2 1 1 2 1 2 2 3 3 1 2 5 4 3 1 1 4 4 4 6 3 4 3 4 6 4 4 4 3 6 7 5 4 4 6 6 7 8 6 6 10 12 9 4 5 11 14 14 15 17 19 19 19 18 15 14 14 14
3 3 6 11 9 4 5 6 5 2 3 1 1 1 1 1 1 2 2 1 1 2 3 1 1 1 1 1 1 3 5 2 1 2 1 0 0 2 2 2 2 2 4 4 2 1 3 5 2 4 3 5 5 3 4 2 4 4 1 3 4 1 2 5 5 5 9 10 7 7 10 10 8 8 11 15 15 16 18 20 21 22 19 17 16 15 15 14
4 3 2 8 7 4 5 5 3 2 3 2 2 2 1 2 2 2 2 2 2 2 1 1 1 0 1 2 1 1 3 3 3 2 0 1 1 1 1 1 1 1 2 4 3 1 2 2 1 3 4 5 5 3 1 1 4 4 4 1 2 2 4 3 1 3 7 9 8 10 11 7 6 9 10 14 16 17 19 21 21 21 19 17 16 14 14 13
2 2 1 6 4 7 6 3 1 1 0 0 1 2 1 2 3 2 2 1 2 1 1 1 1 1 1 1 2 1 1 2 2 2 1 2 1 1 1 1 1 2 2 3 3 3 2 2 3 2 3 3 2 0 3 2 2 1 1 2 3 1 1 2 3 0 4 7 8 11 11 7 7 8 8 13 17 16 18 20 19 18 18 17 15 13 13 11
2 2 1 6 3 7 5 4 3 2 2 2 3 3 1 2 4 3 1 2 2 0 1 2 2 1 1 1 1 1 0 1 1 1 1 1 1 1 1 0 2 2 1 2 2 2 2 3 4 6 4 2 2 5 4 3 2 3 3 2 2 2 2 4 3 1 1 4 7 9 11 10 9 7 7 13 15 14 18 19 18 17 17 17 14 13 13 11
2 2 3 6 2 5 1 3 3 2 2 2 2 3 2 2 3 2 2 3 2 0 0 1 3 2 1 0 0 1 1 1 0 1 0 1 2 2 2 1 2 2 2 2 1 2 2 3 5 7 6 2 6 6 5 6 4 0 2 1 2 1 2 4 6 4 4 6 7 8 9 9 7 5 9 13 13 14 17 18 17 17 15 15 14 13 13 11
1 1 5 6 3 4 1 2 3 3 3 2 1 3 2 1 2 2 3 3 1 0 1 1 1 1 1 0 1 2 1 1 1 1 0 0 1 3 3 1 1 2 2 1 1 1 1 2 4 7 4 4 7 5 4 5 3 4 4 2 2 2 1 2 4 5 5 7 6 6 8 8 5 7 11 13 13 14 15 16 17 16 13 14 15 13 12 12
1 1 4 6 2 2 2 1 3 3 4 2 3 4 2 1 2 2 2 1 0 1 2 2 1 1 1 0 1 1 0 1 2 0 0 1 1 4 3 2 2 2 1 1 2 0 1 2 4 7 5 1 2 1 1 1 2 3 3 4 4 5 4 3 3 1 4 7 6 7 9 8 6 10 13 15 15 16 15 15 15 15 13 13 13 12 12 12
1 1 1 4 5 2 1 1 3 5 5 4 6 5 2 2 1 1 1 2 2 1 1 2 1 1 2 1 1 2 1 1 1 1 1 1 2 3 3 3 3 2 2 3 3 2 2 3 4 5 7 6 5 5 4 3 4 3 2 6 6 6 6 4 3 4 6 7 8 9 11 11 13 16 17 16 15 16 17 15 14 14 13 13 12 11 11 11
1 1 1 1 4 4 2 1 2 6 7 6 5 3 3 3 2 1 1 1 1 1 2 2 1 1 2 2 3 3 3 2 1 1 1 2 2 2 2 3 2 1 2 1 3 3 2 3 3 4 5 6 8 10 11 9 9 10 7 4 6 7 7 4 3 6 7 9 9 10 12 17 20 20 19 17 16 16 17 16 15 14 14 13 12 11 12 11
2 1 1 0 1 3 3 2 2 4 5 4 3 3 4 4 5 2 1 1 1 1 1 2 2 3 3 3 3 3 3 3 2 2 2 2 1 2 2 3 2 2 3 2 2 2 3 3 2 3 7 10 13 16 15 12 11 13 13 7 6 8 8 6 7 9 8 8 9 10 13 18 21 21 20 18 16 16 16 16 15 14 14 13 12 12 13 13
1 1 1 1 1 1 2 2 3 4 3 2 1 3 6 6 5 3 1 2 1 2 1 1 4 5 3 2 2 3 3 4 4 3 2 2 1 2 3 3 3 5 4 2 1 1 4 3 1 1 8 13 15 17 17 13 12 13 13 12 9 8 11 10 11 12 8 7 11 15 19 20 20 20 18 16 16 16 16 15 14 14 14 13 13 13 14 13
1 2 2 1 1 2 2 2 4 5 4 3 2 3 6 8 6 2 1 2 2 3 2 2 5 6 4 2 2 2 3 3 3 2 2 2 2 2 2 3 4 5 4 3 1 1 3 2 2 1 9 14 15 15 14 12 12 13 13 13 12 11 12 13 13 13 13 15 18 20 22 21 18 16 16 15 14 14 13 13 13 14 14 13 13 13 13 14
1 1 2 2 3 3 2 2 3 4 3 1 2 3 4 7 6 3 1 2 3 5 3 3 4 5 3 3 3 3 1 2 2 1 3 3 2 3 3 1 2 4 4 3 2 0 2 0 2 0 7 12 11 9 9 10 11 13 13 12 12 12 13 13 13 13 13 16 18 19 19 17 12 11 14 15 13 13 13 14 14 13 12 12 13 12 13 14
2 2 3 3 3 2 1 1 1 2 3 2 1 3 4 6 7 5 3 1 1 2 3 3 6 6 2 3 5 2 2 3 2 2 1 2 1 1 1 1 1 4 4 3 2 1 2 1 0 1 6 9 4 3 8 10 9 11 13 14 13 12 10 10 10 11 11 13 15 15 13 11 9 11 14 15 14 15 15 14 13 12 11 12 12 12 13 13
3 3 1 1 2 0 1 1 1 2 1 0 1 3 3 4 7 5 2 1 0 1 2 0 4 4 2 4 4 1 4 4 3 3 1 1 1 1 1 1 1 1 3 3 1 0 1 3 3 2 5 7 6 9 12 10 6 5 6 9 13 13 12 11 11 12 13 12 11 9 9 10 13 14 15 15 15 15 14 13 12 12 11 11 11 12 13 12
Wind_Direction
77 78 90 105 112 108 101 95 87 81 79 74 67 67 74 99 129 152 167 181 193 232 258 274 272 270 309 332 50 56 58 57 51 45 45 10 350 348 347 356 359 3 7 359 348 308 287 1 27 333 248 146 15 24 43 23 348 296 311 322 346 7 13 10 356 357 338 327 332 333 349 345 331 3 58 241 116 103 88 82 81 76 80 84 92 97 100 106
86 87 101 114 111 104 97 89 80 78 81 75 65 62 63 77 113 141 164 188 197 19 14 334 319 280 273 269 272 30 47 48 48 41 26 1 358 2 357 4 4 7 13 9 1 349 359 17 10 328 286 63 35 5 6 5 338 329 344 323 28 20 22 30 6 2 347 333 329 329 340 341 340 356 359 308 326 132 113 93 101 95 92 90 90 92 95 94
98 99 109 113 110 105 94 83 76 78 81 72 62 57 54 71 103 117 126 117 101 82 67 60 39 5 273 246 248 254 264 17 41 26 3 358 3 5 0 7 8 11 16 12 5 1 0 354 343 325 329 47 35 14 17 4 345 359 339 337 41 8 16 39 16 5 352 336 330 332 333 334 358 356 330 320 313 290 50 50 83 105 99 93 90 88 86 82
99 101 108 112 111 105 89 80 78 81 79 69 60 51 52 77 105 113 118 111 90 64 42 39 32 24 11 222 221 235 266 312 35 4 350 355 360 3 1 8 12 15 17 9 2 360 328 318 336 335 352 54 41 41 33 16 347 4 358 12 26 349 10 31 16 8 350 338 333 333 336 338 358 3 356 343 323 349 29 10 15 93 99 91 91 85 81 77
96 99 107 114 113 101 85 81 82 85 80 69 57 50 62 90 114 117 107 74 9 335 335 341 14 34 49 75 186 216 262 280 16 347 346 352 358 3 3 9 15 18 15 2 352 351 335 329 354 350 44 46 29 47 34 23 339 21 51 41 25 1 24 24 15 14 348 343 340 339 347 335 334 27 31 21 16 23 17 20 53 84 90 88 89 82 79 75
99 101 112 119 112 98 87 85 86 91 85 72 67 70 80 91 107 105 72 36 11 335 314 315 336 45 59 63 69 81 205 76 356 338 344 353 360 4 6 10 17 21 15 9 10 16 12 14 84 40 60 54 32 34 26 18 341 23 66 47 40 29 33 23 16 15 351 349 350 345 333 316 330 34 51 48 51 43 41 59 70 79 81 84 84 79 79 74
99 106 118 118 109 99 89 88 92 97 90 82 86 85 84 85 88 82 56 39 34 32 11 346 305 37 72 74 71 67 69 50 350 338 348 359 3 6 10 16 23 25 20 24 21 22 22 29 52 30 44 58 30 30 25 21 25 40 55 46 52 46 36 25 17 14 1 351 354 339 312 319 358 31 61 59 61 62 66 74 77 82 82 83 81 77 77 72
102 110 115 113 109 102 90 89 96 99 95 92 95 88 78 70 65 55 45 43 43 47 50 50 76 167 133 109 59 65 54 9 343 342 354 4 10 16 20 24 27 26 28 29 19 17 28 32 35 8 41 55 14 27 21 9 52 46 35 53 57 57 36 12 14 10 2 356 359 338 320 10 69 72 68 62 70 80 82 86 84 86 84 81 80 76 74 70
102 106 109 112 108 99 88 87 99 98 91 90 90 85 64 47 50 48 44 49 49 51 56 59 63 80 108 270 290 64 30 347 341 345 359 13 22 30 37 34 25 30 38 36 29 33 35 27 25 19 50 61 34 36 8 356 55 36 14 69 27 49 31 3 20 4 350 352 0 336 324 29 97 88 70 70 80 90 90 90 86 85 83 79 76 72 70 66
98 104 107 109 103 92 86 88 98 92 78 81 87 87 60 36 43 49 48 52 47 47 59 68 67 62 58 17 70 66 5 342 351 352 8 26 34 43 47 44 28 34 49 46 40 40 40 34 22 3 38 63 56 52 28 27 69 353 9 143 7 46 73 13 28 4 344 15 6 335 319 23 93 60 70 86 92 101 95 91 87 86 83 79 78 72 68 63
99 105 105 104 99 87 85 91 91 85 79 85 93 81 53 32 36 41 43 49 45 42 54 77 75 68 63 60 68 55 354 347 360 358 13 33 45 50 48 49 39 37 58 58 47 38 39 31 16 9 347 19 71 76 65 59 194 352 13 194 358 51 99 18 24 4 350 16 4 333 317 48 71 51 89 107 112 110 97 96 91 88 87 81 79 72 68 63
103 105 105 102 96 88 92 93 87 87 88 87 88 71 35 18 19 27 38 48 55 57 61 71 70 69 64 58 56 30 355 358 3 4 18 28 41 48 46 52 52 48 65 72 58 41 35 15 24 53 17 298 146 95 92 107 315 7 297 233 356 300 146 19 18 5 0 360 354 336 330 60 67 71 106 117 123 114 101 102 94 90 89 82 80 73 70 63
106 107 107 102 95 95 95 88 90 94 92 85 75 65 52 32 20 26 54 59 71 73 65 62 60 56 62 62 54 24 12 10 8 12 28 26 15 42 43 49 58 64 73 78 69 45 39 17 36 59 25 359 80 73 159 207 5 13 314 267 349 317 3 21 13 4 7 360 352 342 338 61 79 96 115 123 131 121 110 106 96 98 90 84 84 74 71 59
107 106 104 100 90 90 90 91 102 101 95 83 68 73 74 63 62 67 89 70 65 71 45 55 68 61 66 88 83 35 26 21 16 15 25 27 20 49 46 49 63 72 76 78 67 46 38 19 39 67 41 44 90 164 183 141 11 10 345 247 347 355 360 11 10 5 7 0 353 345 330 48 92 105 122 132 142 130 116 110 102 104 94 92 88 74 73 55
106 107 102 94 86 85 89 96 108 108 99 81 72 95 87 75 79 71 72 69 61 54 38 48 60 55 77 99 112 28 22 21 18 13 11 16 18 21 26 53 70 69 73 76 68 51 41 35 44 52 38 51 109 215 186 84 10 9 0 318 359 0 346 357 12 7 2 353 350 345 327 34 95 104 134 142 149 135 120 118 112 109 100 94 84 70 60 42
112 112 104 95 95 94 95 100 108 105 98 94 92 123 165 99 90 69 65 68 68 65 55 45 4 2 80 76 44 10 16 17 11 7 5 8 16 9 7 94 104 69 76 72 73 64 47 57 61 48 34 39 31 351 246 13 3 12 12 353 351 349 340 346 0 360 356 348 343 331 316 351 91 93 137 146 146 137 128 125 120 113 104 87 69 51 15 7
118 114 110 110 110 106 104 101 98 94 89 88 83 77 81 78 35 34 54 68 64 59 60 40 7 57 75 40 7 356 1 5 5 7 6 5 18 15 14 93 135 165 121 69 46 20 18 35 70 64 39 39 27 8 11 3 350 1 7 352 344 341 334 332 340 348 357 345 326 313 320 52 89 89 132 143 145 143 140 134 130 123 107 86 42 357 348 344
118 118 121 123 121 114 110 103 96 93 89 87 84 79 77 70 68 68 51 12 329 16 63 26 6 129 71 26 4 341 335 347 4 9 8 8 17 12 11 30 352 247 200 87 27 15 16 27 50 59 39 36 27 24 34 3 339 341 344 341 337 333 330 333 332 339 356 337 317 322 331 59 96 95 122 141 152 150 148 143 142 142 135 328 328 333 337 331
121 125 128 129 127 123 120 112 97 88 80 77 74 64 69 70 71 63 45 41 47 42 70 3 1 118 63 18 349 333 325 335 6 11 10 8 351 341 351 4 20 16 207 93 33 22 18 33 41 39 31 28 25 27 23 348 322 321 326 334 329 323 327 332 326 332 346 327 318 335 328 359 103 102 119 142 156 154 152 146 151 170 211 312 321 320 320 317
127 129 131 133 134 140 142 122 19 324 313 309 310 310 261 130 70 52 35 45 58 56 65 23 30 84 68 15 349 345 342 347 17 16 8 359 327 311 354 353 44 54 45 51 35 22 25 49 46 29 20 21 22 20 1 336 319 315 322 336 328 320 325 326 324 332 341 326 317 327 327 16 103 100 116 142 157 154 157 154 161 191 272 313 314 312 314 315
132 132 135 138 141 159 179 276 309 301 293 282 271 289 292 322 55 109 61 61 61 50 67 57 53 72 57 10 359 353 345 10 22 16 7 359 327 289 359 0 42 49 36 62 73 41 46 54 49 22 1 348 359 5 352 336 323 335 346 338 328 327 324 317 318 332 338 323 312 319 328 61 109 98 114 140 159 160 176 168 160 311 306 306 313 314 317 317
136 139 143 149 163 206 256 291 304 322 332 252 157 81 66 79 110 131 143 93 72 26 64 73 63 66 58 45 6 344 348 18 13 12 4 0 13 25 355 21 57 39 22 44 180 83 55 55 40 12 331 308 303 1 356 343 327 355 358 341 331 334 327 313 321 333 328 312 307 317 321 80 111 98 110 127 137 142 156 129 96 333 311 310 319 320 320 321
141 150 160 163 177 196 35 24 73 97 100 105 102 100 110 116 122 129 138 106 96 7 52 58 50 45 36 44 6 352 34 30 359 5 359 356 28 30 346 30 60 50 34 41 57 58 53 47 19 333 303 332 352 10 3 349 342 34 6 349 335 333 331 322 329 328 320 316 325 317 312 118 118 110 111 111 115 127 127 110 253 309 312 314 322 325 325 326
140 152 157 151 125 97 86 83 99 109 109 113 113 118 130 127 125 127 85 114 103 85 75 55 48 40 35 32 356 2 65 50 8 359 356 2 12 328 343 25 35 56 51 48 74 80 70 46 352 304 315 0 2 13 13 352 349 69 36 357 327 324 326 311 316 321 317 350 34 324 315 131 138 141 124 123 144 145 150 245 261 293 315 319 325 327 327 327
136 152 145 149 128 95 98 90 104 118 109 108 117 128 136 131 140 166 238 193 87 92 123 132 81 37 27 357 359 359 90 59 33 6 358 8 355 311 62 18 348 41 38 18 80 87 69 52 328 325 1 11 3 15 19 350 332 33 30 350 318 316 319 311 320 323 320 31 21 336 334 344 128 146 141 144 165 163 184 253 288 319 326 325 326 326 326 325
142 161 151 148 130 115 152 115 129 133 111 107 137 146 144 131 182 234 263 236 75 40 0 85 354 23 9 346 355 332 196 41 37 19 12 12 350 252 73 14 46 46 17 12 77 95 59 46 343 351 3 7 7 18 21 351 326 341 349 329 313 315 314 314 323 319 329 341 329 357 356 329 335 135 143 153 171 190 225 267 307 328 329 326 325 325 324 324
163 186 206 193 179 244 251 158 149 149 116 159 161 158 159 163 157 97 267 235 95 348 358 26 345 16 12 348 355 110 153 342 337 26 18 7 341 248 307 44 83 54 97 207 55 68 35 29 28 6 2 11 3 1 11 347 324 338 333 320 312 314 309 311 315 304 331 323 308 16 7 321 323 97 140 170 190 215 276 317 327 326 324 324 322 324 326 327
191 221 255 262 255 264 273 156 152 162 252 172 171 179 193 211 224 286 274 247 55 324 2 36 16 26 23 355 17 68 68 327 331 16 0 355 358 296 93 64 74 36 20 300 15 65 21 17 33 5 6 15 350 338 348 335 329 330 319 311 304 304 299 297 302 303 322 309 310 6 358 326 320 46 162 195 222 294 353 355 337 324 323 323 323 327 330 330
230 257 283 278 253 235 212 174 163 180 171 167 174 191 209 223 239 261 265 247 21 66 8 14 132 16 348 335 33 52 35 2 24 346 335 2 25 17 65 57 135 40 34 40 59 98 65 34 27 351 12 5 330 320 324 325 324 313 311 310 302 299 294 280 282 309 312 305 340 355 353 335 314 323 163 206 262 332 360 354 332 323 323 325 328 330 331 330
340 306 289 262 207 170 177 170 162 164 157 168 176 177 202 226 238 242 241 244 24 88 339 0 313 323 331 305 58 40 29 29 5 327 335 29 22 28 82 260 251 231 73 73 80 110 105 82 37 343 36 350 313 294 264 262 294 311 324 327 315 299 296 281 244 313 318 327 356 351 345 328 308 330 9 57 14 348 334 323 321 323 327 329 330 330 331 332
15 354 305 253 196 179 181 156 150 155 153 163 163 156 204 234 263 257 258 234 49 63 319 26 34 333 359 42 52 23 28 35 358 349 15 30 5 24 43 336 305 283 132 84 93 130 146 169 173 124 76 324 312 294 211 221 282 328 342 338 335 322 315 319 161 3 332 335 349 347 337 313 304 331 22 108 116 16 335 324 322 327 331 330 330 330 333 332
38 33 15 221 193 191 181 150 147 149 149 154 160 193 242 243 236 219 63 218 247 26 41 44 27 11 18 59 39 14 1 22 10 5 11 15 27 35 36 24 344 328 53 27 22 154 164 171 131 148 197 318 330 343 114 209 305 352 355 353 359 2 357 353 352 346 322 323 340 341 332 308 309 352 63 134 137 0 349 336 327 329 330 329 330 332 332 331
42 35 36 83 153 147 131 139 144 145 146 153 182 242 266 258 242 101 77 351 336 26 40 314 355 329 282 269 33 12 344 356 2 4 355 7 47 71 67 42 3 334 345 359 348 343 111 125 126 183 186 0 3 11 11 348 355 6 7 6 6 3 353 341 339 332 312 314 325 329 334 318 315 351 53 96 55 354 341 336 330 329 331 332 332 331 330 331
48 44 59 80 97 112 118 130 138 142 150 174 223 233 252 256 310 76 97 61 53 97 118 25 289 283 311 57 26 344 333 87 359 359 2 9 39 53 55 31 12 352 300 331 11 345 330 77 15 355 28 18 30 50 6 323 337 16 16 4 6 16 343 316 327 323 312 311 311 321 356 334 325 359 76 118 157 327 327 333 337 335 336 335 331 331 331 331
53 54 69 75 79 98 115 132 144 148 164 217 228 216 246 235 117 148 157 92 103 161 124 91 242 239 120 98 104 322 344 71 15 13 27 37 36 21 4 2 6 358 317 333 38 325 304 277 78 54 56 38 53 98 319 308 312 4 4 4 4 359 293 278 286 290 297 300 304 325 351 326 330 95 134 169 225 316 326 331 341 341 339 337 333 334 334 333
47 46 54 55 56 86 116 139 151 155 210 243 225 221 269 40 63 37 42 65 123 124 149 183 248 261 147 129 123 108 38 267 244 254 67 67 61 36 9 3 3 353 345 359 19 340 320 309 127 125 86 51 62 130 19 359 357 339 352 4 339 308 275 286 285 287 297 295 306 332 321 320 334 139 156 274 312 327 329 334 344 343 338 339 336 336 337 335
86 52 47 34 33 78 126 151 160 175 247 252 243 236 61 56 14 23 39 333 29 55 226 209 300 344 57 145 68 32 353 185 240 272 133 114 91 54 16 36 22 346 350 345 340 74 322 298 159 152 118 78 96 112 86 46 358 356 7 345 317 248 212 299 307 312 319 307 305 323 320 321 328 335 341 335 329 329 332 338 343 340 339 340 338 338 338 334
170 106 52 22 24 81 119 138 155 203 242 219 91 86 81 72 25 37 42 341 291 240 250 244 21 350 327 321 48 4 332 331 348 331 123 170 104 77 356 12 91 7 339 307 297 103 289 290 156 151 119 117 156 149 105 92 34 49 97 328 338 291 299 326 323 324 329 322 310 318 325 320 324 337 337 335 333 329 333 338 339 339 340 338 338 338 336 335
192 193 59 15 18 88 111 130 170 239 228 186 127 125 100 90 84 55 38 342 277 254 277 39 23 333 50 348 348 4 342 355 357 336 42 8 3 114 352 353 73 46 348 306 314 12 268 286 61 173 159 143 178 212 333 47 87 118 177 170 30 316 307 319 272 302 328 324 313 316 319 315 336 346 332 332 337 334 335 339 337 337 339 336 337 337 336 339
215 223 48 11 40 100 95 110 168 318 136 80 99 116 96 110 114 69 40 341 276 289 14 76 97 151 109 16 307 310 4 355 344 333 9 18 353 129 102 14 311 358 2 292 297 325 259 242 301 266 183 170 183 94 6 16 78 115 255 2 6 320 239 233 239 321 343 323 313 314 309 299 324 338 328 330 340 342 339 337 333 333 336 335 336 335 334 336
257 211 42 9 91 119 86 62 50 35 91 84 84 101 100 128 122 108 119 246 260 337 13 28 55 88 123 136 234 210 252 303 353 347 6 70 14 7 91 36 317 329 294 250 262 318 297 248 292 309 299 295 65 68 58 92 89 349 326 346 11 9 351 309 308 91 112 295 295 296 294 289 297 323 340 336 340 345 339 334 329 331 335 334 333 333 331 332
257 199 9 350 163 164 1 61 59 8 93 94 74 90 91 138 128 128 174 209 229 195 57 46 53 65 96 351 112 166 228 238 33 329 342 61 23 34 77 28 319 299 274 279 63 31 333 279 275 290 297 18 74 68 67 86 97 261 268 180 153 75 13 326 312 310 287 284 279 271 271 276 287 328 346 338 340 343 338 333 328 329 334 333 332 331 330 333
279 152 13 2 149 174 313 93 95 30 77 91 30 77 71 121 137 155 191 197 197 168 135 112 53 38 65 333 185 176 215 239 246 302 201 164 53 77 103 150 251 253 249 252 126 124 241 261 277 285 271 120 93 72 79 84 103 204 199 164 152 154 167 275 291 318 307 281 279 285 275 271 299 337 339 336 340 341 337 333 328 328 333 333 331 330 330 334
48 107 21 16 92 199 300 125 133 102 106 127 113 101 72 30 88 159 183 160 128 163 140 123 101 86 103 23 212 151 108 246 214 179 265 244 115 109 135 175 220 258 289 352 7 107 229 289 313 316 319 91 83 34 107 131 252 234 171 129 132 144 168 225 239 261 274 264 279 296 278 268 299 325 330 333 338 338 335 332 330 330 332 332 330 329 330 332
124 122 88 39 42 44 331 340 131 132 140 139 120 130 151 95 58 295 99 82 39 17 111 117 101 100 117 146 172 135 126 269 219 116 61 268 145 134 152 176 218 279 42 24 345 293 275 309 323 335 342 336 324 318 316 309 292 282 169 150 154 157 169 207 263 269 279 298 303 283 268 279 302 316 325 332 336 335 332 331 332 331 332 331 328 327 329 331
224 293 157 86 44 62 70 9 110 131 147 152 134 154 177 133 135 284 3 80 107 63 78 108 133 162 154 178 198 180 175 197 239 214 214 206 163 135 144 170 209 256 95 50 313 280 271 283 268 269 285 294 295 293 299 309 300 290 281 207 167 163 177 201 260 271 292 310 293 263 269 294 305 314 325 332 336 333 330 332 332 332 333 331 328 327 325 327
258 293 78 164 69 80 82 83 113 121 146 170 154 150 156 141 142 154 350 14 141 140 84 104 178 200 176 181 206 194 177 183 200 218 219 215 162 128 154 185 205 164 153 197 269 272 277 274 258 257 256 263 276 281 287 294 284 280 286 269 192 164 170 190 228 254 286 305 282 276 295 301 302 312 323 330 334 331 328 330 330 329 331 329 326 324 321 325
302 109 55 328 289 87 74 108 122 106 107 121 111 140 153 153 156 164 133 86 137 213 207 160 207 219 201 188 215 194 183 200 202 185 184 212 208 173 175 202 196 164 169 214 208 12 291 281 68 312 269 269 273 274 276 277 271 271 277 272 250 201 182 194 225 243 253 256 263 285 299 297 296 308 320 328 331 326 323 324 324 324 326 324 322 322 321 327
67 102 88 330 0 67 46 79 119 119 107 102 129 164 174 171 163 144 109 135 169 202 230 227 200 195 187 184 233 221 197 218 228 208 175 172 195 210 207 213 188 172 199 222 145 46 284 264 82 339 285 284 279 270 266 263 264 269 267 266 264 243 216 217 234 243 244 249 260 279 290 289 291 305 317 323 324 319 317 318 320 322 323 321 321 321 323 328
196 129 125 118 93 77 50 86 134 142 131 150 184 165 186 185 169 145 148 196 176 164 196 230 176 158 164 185 225 256 283 316 309 272 181 173 191 222 229 243 154 164 208 220 141 80 281 353 82 214 287 291 281 262 256 257 263 273 272 265 260 253 242 238 242 248 252 257 267 280 286 285 289 307 316 317 318 316 316 317 319 322 322 320 321 322 323 326
91 108 143 132 104 74 30 118 208 212 170 208 202 154 191 196 168 148 132 10 326 159 180 195 153 136 138 210 230 268 23 23 6 30 173 204 263 248 233 322 112 169 193 193 159 197 240 269 266 279 299 300 287 263 281 284 279 273 270 262 247 237 234 232 234 241 251 265 277 282 283 286 302 316 314 311 315 317 317 318 320 321 321 320 322 322 321 323
110 102 170 106 95 142 255 150 226 248 185 80 91 138 185 177 153 148 131 120 11 24 358 309 154 155 191 207 214 23 53 58 55 47 21 308 333 325 317 358 345 226 190 170 177 197 247 283 301 334 302 294 311 320 311 308 296 268 254 241 228 221 225 232 238 243 250 263 274 272 272 289 306 312 309 310 315 316 314 317 319 319 317 318 321 318 316 320
Height
821 821 820 819 819 819 820 820 820 820 819 819 818 818 817 817 818 818 818 818 818 818 818 818 817 817 816 815 815 814 814 815 816 814 816 823 824 821 819 817 814 811 810 808 807 805 804 803 803 803 802 802 804 805 807 807 807 806 807 811 812 812 818 823 823 824 824 821 818 814 815 819 817 815 820 821 821 826 830 834 837 838 840 841 844 847 847 849
821 821 820 820 819 820 821 821 820 820 820 820 819 818 818 818 818 818 819 819 819 819 818 817 817 816 816 815 815 815 814 815 815 815 820 824 823 821 819 817 815 812 810 809 808 806 804 803 804 803 801 802 806 807 808 809 808 810 811 812 817 820 823 825 826 827 827 826 823 818 817 820 821 819 820 821 820 824 828 834 839 841 844 846 848 850 850 851
821 821 821 821 821 821 822 821 821 821 821 820 820 819 819 819 819 819 819 820 819 818 817 817 817 816 814 815 815 815 815 814 815 819 824 824 822 821 819 817 815 813 811 810 809 808 807 806 805 803 802 805 808 808 809 811 811 812 814 816 822 824 823 826 828 830 830 828 826 822 819 819 822 822 821 822 820 819 827 835 839 843 848 850 852 853 854 854
821 821 821 821 822 822 823 822 822 822 822 821 821 820 820 820 820 820 820 820 819 818 818 817 817 815 813 814 814 816 816 815 821 827 826 824 823 822 820 818 816 814 812 811 810 808 808 806 805 805 804 808 810 809 812 815 815 814 817 823 826 823 824 829 830 832 832 829 828 824 822 821 823 825 826 826 823 825 837 842 840 845 852 854 855 856 857 858
822 822 822 823 823 823 823 823 823 823 823 822 822 821 820 820 821 821 821 821 820 818 818 817 818 817 814 814 815 817 815 820 829 830 827 825 824 822 820 819 817 815 813 811 810 808 807 805 805 806 806 811 812 812 817 818 818 819 823 827 828 826 829 832 831 835 835 830 829 826 826 825 823 828 835 836 838 844 849 848 846 851 855 857 858 859 861 862
823 823 823 824 824 824 824 824 825 824 824 824 823 822 821 822 822 823 823 822 820 818 817 818 818 818 817 816 817 816 818 829 835 830 829 826 824 823 821 820 818 816 814 812 811 809 807 804 805 808 809 813 816 817 821 819 817 822 827 828 830 830 832 834 833 836 835 831 832 830 829 827 824 834 845 848 853 858 856 854 855 857 859 860 862 863 864 865
824 824 825 825 825 825 825 825 825 825 825 824 824 824 823 824 824 824 824 822 820 817 817 817 818 819 819 818 819 818 822 833 836 832 830 827 825 824 822 821 819 818 816 814 812 810 810 808 809 812 812 816 820 821 824 822 818 823 830 832 833 833 833 834 834 834 834 834 834 831 828 827 829 838 850 856 861 862 860 861 862 863 864 865 866 867 867 868
825 825 825 825 825 825 826 826 826 826 826 825 825 825 825 825 825 824 823 823 821 818 818 818 818 819 819 819 818 819 827 835 835 833 830 827 826 824 823 822 820 820 818 816 815 813 812 813 814 814 816 822 823 824 825 824 824 829 833 833 832 833 833 832 831 832 833 833 833 832 828 830 837 844 855 862 864 864 864 864 865 866 868 868 869 869 870 871
826 826 825 826 826 826 826 826 826 826 826 826 826 826 826 826 825 825 824 824 822 821 820 819 819 819 819 819 816 821 834 838 836 834 831 829 827 825 824 823 822 822 820 820 818 815 815 817 818 816 819 823 823 826 826 825 831 836 835 833 831 832 833 831 831 832 833 833 833 834 829 833 842 846 858 867 866 867 866 866 868 869 870 871 872 872 873 873
825 826 826 826 826 826 826 827 827 827 826 826 827 827 827 826 826 826 825 825 824 823 822 821 821 820 821 818 816 828 840 839 837 835 831 830 828 827 825 824 824 823 822 823 821 820 820 821 821 818 819 822 825 829 829 829 835 836 834 834 831 832 833 831 833 835 833 832 835 836 831 835 841 843 859 869 868 868 868 869 871 871 872 873 874 874 875 876
826 826 826 826 826 827 827 827 827 827 827 827 827 827 827 827 827 826 826 826 825 825 824 823 822 822 823 819 822 836 842 838 837 835 832 832 830 828 827 826 825 824 824 825 824 824 823 823 822 819 821 824 828 831 833 836 837 834 834 835 830 831 833 830 834 837 833 832 836 836 830 835 844 848 863 869 868 870 869 871 873 873 874 875 876 876 877 878
826 826 826 826 827 827 828 828 828 828 828 828 828 828 828 828 827 827 827 826 826 825 824 824 823 824 823 821 831 842 841 839 839 836 834 833 831 830 829 828 827 827 826 826 827 827 826 826 822 821 825 826 828 833 836 837 834 832 833 834 831 829 830 831 835 837 835 835 837 834 829 839 852 859 867 869 868 870 870 873 874 875 876 876 878 878 879 880
827 827 827 827 828 828 828 828 828 828 829 829 829 828 828 828 828 827 827 827 827 826 826 825 825 824 822 828 841 844 841 840 839 837 835 833 832 831 830 830 828 828 828 828 829 829 828 827 824 825 827 826 830 836 837 835 831 831 832 833 833 831 830 833 836 835 837 838 837 836 833 844 860 864 867 869 869 871 872 874 876 876 878 878 879 879 880 881
827 827 828 828 829 829 829 829 829 829 829 829 829 829 829 829 828 828 828 828 827 827 827 826 827 825 825 835 844 842 840 841 838 836 834 832 832 832 832 831 830 830 830 830 830 830 829 829 826 826 827 829 834 838 835 832 829 832 835 836 836 838 835 832 833 835 839 839 836 839 836 842 860 864 866 869 868 871 873 875 877 878 879 879 880 880 881 881
828 829 829 829 829 829 829 829 829 830 829 830 830 830 830 829 829 829 828 828 828 828 827 826 827 826 830 838 842 841 841 839 838 837 835 834 833 832 833 833 832 832 832 832 831 831 831 831 828 827 830 831 833 835 832 831 831 833 839 839 838 841 839 832 832 836 841 840 836 841 839 841 858 864 864 868 868 870 874 876 878 879 879 880 880 880 881 881
829 830 830 830 830 829 830 830 830 830 830 830 830 830 831 830 830 830 830 829 828 828 828 828 828 827 833 840 840 840 840 840 839 839 837 836 834 834 834 833 834 833 833 833 832 832 831 831 831 833 834 832 834 833 829 834 838 837 841 845 843 844 842 836 834 836 840 842 840 843 840 839 855 862 863 866 868 871 874 877 879 879 880 880 880 880 880 880
830 830 831 831 831 831 831 831 831 831 831 831 831 831 831 831 830 830 831 830 830 830 829 831 830 828 835 841 841 841 842 843 842 840 839 836 835 835 834 834 834 833 833 832 832 832 830 831 834 838 839 839 843 838 835 845 849 845 846 850 848 847 846 841 839 837 839 846 845 840 837 842 856 862 863 866 868 871 874 877 879 880 880 880 880 880 880 880
831 831 831 831 832 832 832 832 832 832 832 833 833 833 831 832 831 830 831 830 830 830 830 832 831 833 841 844 845 846 845 844 843 841 839 837 836 836 835 835 833 832 831 831 833 832 831 833 835 840 845 848 850 847 851 860 860 857 857 855 852 849 848 846 844 839 841 847 845 837 835 843 858 862 863 867 868 870 873 876 878 879 880 880 880 880 881 880
831 832 832 833 833 833 833 833 833 833 834 834 834 833 833 833 831 832 833 832 833 836 840 842 839 842 850 850 849 848 845 845 843 842 840 839 838 837 836 835 833 831 831 834 838 838 837 838 840 847 855 858 859 860 863 865 864 864 861 858 856 852 848 848 846 840 841 845 841 837 834 840 856 863 865 868 868 870 872 874 877 878 879 880 880 880 879 878
832 833 834 834 834 834 834 834 834 834 834 834 834 834 833 833 834 840 841 839 843 849 851 851 848 848 852 852 850 847 845 844 843 844 842 840 839 837 835 834 832 833 837 842 845 843 841 847 857 863 866 866 865 865 866 863 862 861 859 858 857 853 849 846 844 839 840 843 840 836 835 843 859 865 866 869 870 872 874 875 877 878 879 880 880 878 876 876
834 835 835 835 835 835 835 834 834 834 833 834 834 834 834 834 837 845 847 849 853 853 853 853 852 852 854 854 853 850 848 845 844 845 845 842 839 837 837 836 836 838 842 847 849 845 845 857 870 871 869 868 868 866 864 861 860 858 858 860 856 854 853 847 843 840 839 843 841 835 837 849 863 866 868 870 871 874 875 877 878 879 881 879 876 876 874 873
835 836 836 836 836 835 835 835 835 834 833 834 834 835 836 835 836 839 842 850 856 854 853 854 853 853 855 855 854 852 850 849 846 846 847 843 839 840 842 840 843 847 843 843 846 844 851 866 872 871 869 868 867 866 863 859 856 856 859 861 859 855 852 846 841 841 840 841 841 837 839 853 865 867 870 872 872 876 876 878 880 881 882 878 874 874 872 870
836 836 836 836 836 836 836 835 835 835 834 835 835 836 837 837 838 838 837 844 854 856 854 854 854 855 855 855 856 853 852 855 854 851 851 847 845 848 848 844 847 851 847 845 846 848 859 870 871 871 870 866 864 864 866 861 852 857 863 865 865 859 857 853 844 841 839 838 841 840 841 856 868 870 872 875 875 877 880 881 882 881 880 876 873 873 871 869
837 837 837 837 836 836 836 836 836 836 836 836 836 837 838 838 838 839 839 842 850 855 856 856 856 856 857 858 858 855 855 859 860 858 856 854 852 851 852 853 851 852 857 856 854 859 868 873 871 871 867 864 864 864 870 868 856 859 866 868 868 863 862 860 849 842 837 837 843 841 838 847 863 871 873 877 878 879 883 883 881 879 876 874 873 873 871 869
837 837 837 837 837 837 836 837 837 837 838 838 838 839 839 839 839 839 840 842 849 854 856 857 856 857 860 859 859 859 858 859 862 862 860 859 858 855 854 857 854 855 861 859 856 863 870 874 873 870 866 864 865 866 873 875 863 857 862 868 868 863 862 858 850 847 840 839 842 841 842 842 850 868 874 876 880 880 884 884 878 876 874 874 874 872 871 869
837 837 837 837 837 837 837 837 838 838 838 839 840 840 839 840 839 839 839 842 850 857 857 855 857 859 860 860 859 859 858 861 864 863 862 862 862 859 856 855 856 860 864 861 859 864 870 872 871 870 868 865 866 868 873 877 869 859 860 866 865 863 863 856 853 855 848 845 839 836 852 849 841 861 873 872 879 880 881 881 876 875 876 874 874 872 869 867
837 837 837 837 837 837 837 837 837 838 839 840 840 840 840 840 839 840 842 846 855 861 859 856 859 862 863 862 859 858 862 864 863 862 863 863 862 860 857 857 858 861 866 864 860 866 872 871 872 871 868 867 869 870 873 877 873 865 864 865 862 862 861 856 855 853 846 845 837 831 850 853 843 859 873 871 876 876 873 874 873 875 876 873 873 871 868 867
837 837 837 837 837 837 837 837 837 838 838 839 840 840 841 840 840 840 845 857 864 862 861 861 862 864 864 864 862 862 868 868 864 863 863 864 862 859 858 862 864 863 864 859 857 870 876 874 877 876 871 872 873 873 873 876 873 867 866 864 861 858 855 853 852 848 844 844 841 835 845 856 852 858 869 870 869 868 868 871 875 875 874 872 871 869 868 868
837 837 837 837 837 837 838 837 837 838 838 839 840 841 840 840 841 840 846 863 867 863 864 864 863 865 866 867 867 868 870 870 869 868 865 864 863 861 862 866 866 864 861 855 859 874 879 878 881 879 877 878 876 874 872 874 873 867 863 859 853 850 848 848 848 848 845 843 846 843 847 861 857 844 851 862 865 869 872 873 875 874 872 872 870 869 869 868
837 837 837 837 837 837 837 837 838 838 839 840 840 841 841 840 843 847 855 865 866 867 868 864 867 872 869 867 869 871 872 873 874 870 866 866 865 863 866 868 865 862 862 861 866 876 879 882 884 881 880 881 877 873 870 874 872 863 860 855 847 846 844 841 843 848 847 843 847 847 850 863 857 835 840 861 871 877 878 875 874 873 872 872 870 869 869 867
837 837 837 837 837 838 837 838 838 838 840 840 840 841 840 841 844 851 863 868 866 868 869 870 875 877 874 872 872 874 875 875 876 873 869 868 867 863 863 867 866 859 856 860 869 877 879 880 880 880 882 881 875 867 867 873 869 862 861 856 849 845 842 837 838 850 857 851 846 847 851 859 853 842 851 869 876 877 877 876 874 872 871 871 870 868 868 868
837 837 837 837 837 837 837 837 838 840 840 840 842 840 841 848 849 854 865 868 868 871 874 878 879 878 880 877 877 880 879 877 877 878 877 872 872 876 876 879 879 866 856 860 867 870 874 877 879 881 883 881 873 864 864 868 866 864 863 860 859 857 857 856 851 857 862 853 848 850 854 855 849 850 860 869 873 875 875 876 875 873 872 869 868 868 868 869
838 838 838 838 837 837 838 838 839 840 840 841 841 839 844 852 856 865 870 867 872 879 882 883 880 880 880 875 878 884 883 881 879 879 881 874 875 883 886 888 890 879 866 865 866 864 868 875 877 878 879 878 875 871 871 871 868 869 870 871 875 881 890 885 871 869 865 854 851 852 855 855 849 851 860 865 871 874 874 874 874 873 871 869 869 869 869 869
840 840 839 839 838 838 839 839 840 841 841 842 840 843 852 856 864 876 875 869 878 884 883 885 882 880 878 876 882 886 882 883 883 880 877 874 875 880 883 887 890 888 877 869 875 876 869 869 873 875 877 878 879 881 884 881 876 874 876 879 881 891 907 900 887 887 881 868 859 853 858 861 854 855 862 865 869 871 871 872 872 871 870 871 870 869 869 869
842 841 840 840 839 840 840 840 841 841 841 842 842 847 854 858 863 869 870 874 880 881 881 886 883 875 874 878 885 889 885 883 884 883 879 878 882 886 890 893 893 895 886 873 880 883 865 862 876 879 878 880 882 886 886 881 878 875 873 881 887 891 899 898 891 888 886 878 860 849 855 855 850 858 864 864 865 866 868 868 867 869 870 870 870 869 869 869
843 842 841 841 841 841 841 842 842 842 842 842 844 849 857 866 869 868 875 882 880 879 880 881 878 869 866 873 880 886 888 886 884 882 883 887 890 892 897 900 900 902 897 885 888 888 869 862 875 882 881 884 884 885 885 881 880 878 878 887 892 891 894 896 888 877 879 880 859 849 857 852 848 857 859 859 861 861 865 865 864 868 869 869 870 869 869 870
843 843 843 843 843 842 843 842 842 843 842 841 848 858 868 879 882 880 885 887 884 885 877 870 876 876 869 869 875 882 885 885 882 877 879 888 891 896 899 901 905 906 904 899 894 895 889 870 866 875 880 885 887 885 887 888 884 883 888 892 889 891 894 892 889 886 887 886 866 858 870 864 855 855 852 856 863 862 864 864 864 867 867 868 869 869 870 870
843 843 844 844 844 843 843 843 843 843 841 846 860 872 877 882 887 888 890 890 887 886 875 867 878 884 878 872 876 885 885 879 876 874 877 881 887 899 901 899 905 906 907 907 896 896 899 878 863 870 876 883 889 886 885 889 888 888 893 895 894 898 897 891 898 904 900 896 881 869 874 869 856 856 858 860 863 863 861 862 863 865 866 867 868 869 870 869
844 843 844 846 845 844 844 844 844 842 841 849 861 872 878 884 891 893 895 895 889 882 874 873 880 883 882 880 880 886 887 881 877 875 877 880 886 900 904 901 905 906 907 908 898 895 898 884 869 869 873 878 882 878 875 879 888 891 891 894 896 900 901 901 906 906 902 906 901 886 878 864 850 856 865 862 859 860 860 861 864 865 866 868 868 869 869 869
843 843 845 847 845 844 845 844 844 844 849 857 863 872 880 886 892 896 898 898 891 882 877 877 880 880 883 887 886 886 887 885 882 879 878 884 889 898 906 906 905 906 907 909 904 898 897 889 875 866 866 869 871 872 871 874 886 890 889 896 901 899 899 900 900 902 910 916 914 905 890 864 850 856 862 859 857 860 863 864 865 866 867 868 869 870 869 869
843 843 845 847 846 846 844 845 852 857 860 866 870 877 884 885 889 895 899 900 895 888 884 881 880 880 883 886 887 888 887 884 884 882 881 886 889 893 905 910 907 908 908 906 904 901 896 889 880 870 862 861 867 877 879 880 886 889 890 897 902 902 902 900 900 907 918 918 914 918 908 876 855 853 854 855 857 860 864 866 866 866 868 869 869 870 869 869
843 844 846 846 846 845 844 852 865 865 863 871 877 881 885 885 887 892 896 898 893 887 887 886 883 883 885 884 886 889 887 883 884 884 884 887 890 895 907 914 912 911 910 904 903 908 905 896 888 877 865 867 879 885 883 884 888 892 896 896 898 903 905 905 905 905 909 909 906 916 913 880 851 846 850 853 857 861 864 866 866 866 867 869 869 869 868 868
843 845 847 846 846 846 846 856 868 869 873 883 885 885 887 886 886 890 891 890 888 885 884 886 888 888 888 889 888 888 888 886 886 886 887 888 896 906 914 916 916 913 910 905 904 910 909 899 889 874 861 873 892 894 890 894 896 895 895 895 898 905 907 907 911 913 915 912 907 913 907 872 844 843 849 851 856 861 864 866 867 865 866 868 868 867 868 867
845 846 847 847 847 846 846 852 862 872 882 885 884 886 889 887 886 888 887 885 886 885 882 886 891 890 891 893 890 888 891 889 886 890 892 889 899 914 917 917 917 911 908 907 906 909 902 889 883 872 860 866 878 882 886 895 896 886 886 897 903 907 914 914 915 922 919 906 903 911 899 864 844 844 847 851 856 861 864 866 866 865 865 867 867 866 867 867
846 847 848 848 848 848 850 853 858 870 881 881 881 885 885 887 891 890 887 888 889 887 883 887 892 891 893 896 892 892 896 891 888 895 899 895 901 914 916 917 917 911 911 915 913 911 901 888 883 880 875 871 868 866 869 876 879 874 881 901 908 911 917 913 909 912 904 891 895 903 886 855 843 845 848 852 857 860 863 864 864 865 865 866 866 865 866 866
844 846 847 848 849 851 856 859 857 864 874 874 877 882 880 882 891 892 889 889 891 891 887 890 894 892 893 894 890 889 893 895 893 895 898 896 899 909 914 914 915 913 915 919 917 912 904 894 888 883 882 882 876 871 868 870 874 872 875 891 906 914 916 911 908 900 889 890 893 886 873 857 847 847 849 852 857 861 861 861 861 863 863 864 864 864 865 865
844 847 850 850 850 852 857 860 859 861 867 866 870 878 879 880 885 889 889 888 890 892 889 890 893 889 887 889 886 884 889 894 895 896 900 900 900 907 912 912 913 914 917 918 915 911 902 892 891 890 888 885 881 877 875 876 878 875 873 881 896 911 916 916 910 892 886 899 889 864 863 865 855 851 852 853 857 860 860 860 861 861 862 863 863 863 864 864
847 851 857 857 854 855 857 859 861 864 865 866 872 879 879 879 882 883 886 890 892 891 887 888 890 887 885 886 883 882 887 889 890 896 902 904 904 905 907 910 911 912 916 913 911 913 904 891 897 903 896 889 887 881 877 876 874 871 872 875 881 897 910 913 905 891 891 902 886 863 867 870 859 853 853 854 858 860 859 860 860 860 862 862 862 863 862 863
852 853 860 862 859 862 865 864 864 865 866 868 874 878 876 875 879 881 884 887 888 889 887 882 882 884 885 887 885 882 884 883 885 893 900 903 906 904 901 903 906 909 911 907 910 918 906 892 902 911 902 891 883 874 871 873 872 870 872 873 874 882 892 898 896 891 891 890 880 870 871 868 859 854 853 854 858 859 859 859 859 860 861 861 861 862 861 862
848 848 855 859 861 867 870 868 864 863 866 868 868 874 875 872 875 881 884 883 880 884 887 881 879 884 887 889 887 883 883 885 885 892 897 898 901 903 898 894 898 908 910 905 912 919 907 897 905 913 903 883 869 867 868 868 869 870 870 870 872 875 880 886 888 887 887 883 876 874 873 865 856 852 852 854 856 857 857 858 858 859 860 860 860 860 861 862
844 845 848 850 859 869 868 867 866 860 859 862 863 871 875 869 871 878 883 887 885 882 884 881 879 886 892 891 888 885 888 892 891 894 898 896 896 899 897 893 897 905 908 909 914 915 909 901 901 906 898 872 858 863 864 862 870 877 876 872 871 873 876 879 879 879 879 877 874 874 871 858 848 849 852 853 854 856 856 857 857 857 858 859 859 860 861 861
845 846 845 844 857 871 868 864 865 859 858 864 866 872 874 869 872 875 877 886 891 888 888 885 880 884 887 889 891 892 895 898 898 900 900 899 899 899 899 899 900 901 903 911 914 914 912 904 896 901 896 870 855 858 861 866 867 862 860 862 861 865 870 871 870 869 867 869 870 868 859 849 846 850 853 852 853 856 856 856 856 856 856 857 858 860 860 860